www.pogodaiklimat.ru

Погода и климат >> Архив погоды >> Австралия >> Moomba Airport


ПОГОДА в Moomba Airport

  • Прогноз погоды в Moomba Airport
  • Монитор погоды в Moomba Airport
  • Климат города

АРХИВ ПОГОДЫ в Moomba Airport

Время (UTC), дата Ветер
(напр.,м/с)
 
Видим.   Явления Облачность Т
(С)
Тd
(С)
f
(%)
Тe
(С)
Тes
(С)
Комфортность P
(гПа)
Po
(гПа)
Тmin
(С)
Tmax
(С)
R
(мм)
R24
(мм)
S
(см)
10 11.12 Ю 5 н/о н/о +35.1 +1.5 12 +32 +32 жарко 1010.9 1006.5
11 11.12 Ю 4 н/о н/о +33.3 +2.2 14 +30 +30 жарко 1011.4 1007.0
12 11.12 Ю 3 н/о н/о +30.6 +2.8 17 +28 +28 жарко 1011.8 1007.4
14 11.12 Ю 3 н/о н/о +27.8 +2.1 19 +26 +26 жарко 1012.0 1007.6
13 11.12 Ю 4 н/о н/о +29.3 +1.7 17 +27 +27 жарко 1012.1 1007.7
15 11.12 Ю 4 н/о н/о +27.4 +1.0 18 +25 +25 комфорт 1011.3 1006.9
16 11.12 Ю 3 н/о н/о +26.2 +0.8 19 +24 +24 комфорт 1010.7 1006.3
17 11.12 Ю 5 н/о н/о +26.8 +2.0 20 +25 +25 комфорт 1010.5 1006.1
18 11.12 ЮВ 6 н/о н/о +26.9 +2.7 21 +25 +25 комфорт 1010.4 1006.0
20 11.12 ЮВ 5 н/о н/о +25.9 +3.8 24 +25 +25 комфорт 1011.4 1007.0
19 11.12 ЮВ 4 н/о н/о +25.7 +3.0 23 +25 +25 комфорт 1010.8 1006.4
21 11.12 ЮВ 5 н/о н/о +28.4 +4.0 21 +27 +27 жарко 1012.1 1007.7
22 11.12 В 8 н/о н/о +32.6 +4.4 17 +30 +30 жарко 1012.6 1008.2
23 11.12 В 7 н/о н/о +35.5 +4.9 15 +33 +33 жарко 1012.6 1008.2
00 12.12 СВ 6 н/о н/о +38.0 +6.9 15 +36 +36 очень
жарко
1012.3 1007.9
02 12.12 С 4 н/о н/о +41.1 +6.0 12 +38 +38 очень
жарко
1010.6 1006.2
01 12.12 СВ 6 н/о н/о +38.9 +6.6 14 +36 +36 очень
жарко
1011.7 1007.3
03 12.12 СВ 2 н/о н/о +40.8 +4.6 11 +38 +38 очень
жарко
1009.7 1005.4
04 12.12 В 4 н/о н/о +40.8 +3.2 10 +38 +38 очень
жарко
1008.7 1004.4
05 12.12 Ю 3 н/о н/о +41.9 +4.0 10 +39 +39 очень
жарко
1007.9 1003.6
06 12.12 В 5 н/о н/о +41.5 +3.7 10 +38 +38 очень
жарко
1007.3 1003.0
08 12.12 ЮВ 4 н/о н/о +40.6 +3.1 10 +37 +37 очень
жарко
1006.9 1002.6
07 12.12 Ю 2 н/о н/о +40.7 +3.1 10 +37 +37 очень
жарко
1006.9 1002.6
09 12.12 ЮВ 4 н/о н/о +39.8 +2.5 10 +36 +36 очень
жарко
1007.2 1002.9
10 12.12 В 3 н/о н/о +37.2 +1.8 11 +34 +34 очень
жарко
1007.5 1003.2
11 12.12 ЮВ 3 н/о н/о +36.7 +2.7 12 +33 +33 жарко 1007.6 1003.3
12 12.12 ЮВ 2 н/о н/о +35.6 +3.0 13 +32 +32 жарко 1007.7 1003.4
14 12.12 В 3 н/о н/о +30.4 +2.6 17 +28 +28 жарко 1007.3 1003.0
13 12.12 ЮВ 2 н/о н/о +32.9 +2.9 15 +30 +30 жарко 1007.6 1003.3
15 12.12 СВ 2 н/о н/о +29.2 +2.5 18 +27 +27 жарко 1006.8 1002.5
16 12.12 В 2 н/о н/о +29.1 +2.4 18 +27 +27 жарко 1006.1 1001.8
17 12.12 В 4 н/о н/о +26.7 +1.9 20 +25 +25 комфорт 1005.7 1001.4
18 12.12 В 3 н/о н/о +25.5 +1.6 21 +24 +24 комфорт 1005.8 1001.5
20 12.12 С 5 н/о н/о +27.4 +3.8 22 +26 +26 жарко 1006.8 1002.5
19 12.12 С 4 н/о н/о +25.8 +2.5 22 +25 +25 комфорт 1006.1 1001.8
21 12.12 СВ 5 н/о н/о +32.0 +4.7 18 +30 +30 жарко 1007.4 1003.1
22 12.12 СВ 7 н/о н/о +34.8 +5.3 16 +32 +32 жарко 1008.0 1003.7
23 12.12 С 8 н/о н/о +38.8 +5.4 13 +36 +36 очень
жарко
1008.1 1003.8
00 13.12 С 10 н/о н/о +40.2 +5.4 12 +37 +37 очень
жарко
1007.9 1003.6
02 13.12 С 7 н/о н/о +41.6 +3.8 10 +38 +38 очень
жарко
1006.7 1002.4
01 13.12 С 8 н/о н/о +41.5 +5.1 11 +39 +39 очень
жарко
1007.4 1003.1
03 13.12 СЗ 6 н/о н/о +43.1 +3.4 9 +40 +40 очень
жарко
1005.7 1001.4
04 13.12 СЗ 6 н/о н/о +43.0 +3.4 9 +40 +40 очень
жарко
1004.7 1000.4
05 13.12 С 5 н/о н/о +42.9 +1.6 8 +39 +39 очень
жарко
1004.0 999.7
06 13.12 СВ 3 н/о н/о +42.8 +1.6 8 +39 +39 очень
жарко
1003.3 999.0
08 13.12 С 4 н/о н/о +42.1 +1.1 8 +38 +38 очень
жарко
1002.5 998.2
07 13.12 СВ 4 н/о н/о +43.1 +1.8 8 +40 +40 очень
жарко
1002.7 998.4
09 13.12 СЗ 4 н/о н/о +41.4 +0.5 8 +38 +38 очень
жарко
1002.8 998.5
10 13.12 С 4 н/о н/о +37.7 +0.9 10 +34 +34 очень
жарко
1003.0 998.7
11 13.12 С 4 н/о н/о +35.5 -0.8 10 +32 +32 жарко 1003.2 998.9
12 13.12 С 4 н/о н/о +34.5 +1.0 12 +31 +31 жарко 1003.6 999.3
14 13.12 С 4 н/о н/о +31.3 +1.6 15 +29 +29 жарко 1003.6 999.3
13 13.12 С 3 н/о н/о +32.4 +1.5 14 +29 +29 жарко 1003.8 999.5
15 13.12 С 4 н/о н/о +30.9 +2.2 16 +28 +28 жарко 1003.0 998.7
16 13.12 С 5 н/о н/о +31.2 +3.3 17 +29 +29 жарко 1002.5 998.2
17 13.12 С 6 н/о н/о +34.0 +4.6 16 +31 +31 жарко 1002.9 998.6
18 13.12 СЗ 8 н/о н/о +34.4 +4.0 15 +32 +32 жарко 1003.7 999.4
20 13.12 С 5 н/о н/о +32.3 +4.2 17 +30 +30 жарко 1004.3 1000.0
19 13.12 С 5 н/о н/о +32.1 +4.8 18 +30 +30 жарко 1003.9 999.6
21 13.12 С 6 н/о н/о +34.3 +4.0 15 +32 +32 жарко 1004.9 1000.6
22 13.12 С 8 н/о н/о +38.3 +3.9 12 +35 +35 очень
жарко
1004.9 1000.6
23 13.12 С 10 н/о н/о +38.5 +4.1 12 +35 +35 очень
жарко
1004.9 1000.6
00 14.12 СЗ 7 н/о н/о +40.1 +2.7 10 +37 +37 очень
жарко
1004.6 1000.3
02 14.12 СЗ 5 н/о н/о +41.1 +3.4 10 +38 +38 очень
жарко
1004.2 999.9
01 14.12 З 5 н/о н/о +40.7 +3.1 10 +37 +37 очень
жарко
1004.4 1000.1
03 14.12 Ю 6 н/о н/о +39.7 +3.7 11 +37 +37 очень
жарко
1004.1 999.8
04 14.12 Ю 9 н/о н/о +37.2 +6.3 15 +35 +35 очень
жарко
1003.9 999.6
05 14.12 Ю 9 н/о н/о +37.7 +6.6 15 +35 +35 очень
жарко
1004.0 999.7
06 14.12 Ю 10 н/о н/о +37.1 +8.0 17 +35 +35 очень
жарко
1004.1 999.8
08 14.12 Ю 8 н/о н/о +34.4 +9.6 22 +33 +33 жарко 1005.6 1001.3
07 14.12 Ю 10 н/о н/о +35.0 +9.4 21 +34 +34 очень
жарко
1004.8 1000.5
09 14.12 Ю 8 н/о н/о +34.2 +10.1 23 +33 +33 жарко 1006.1 1001.8
10 14.12 Ю 6 н/о н/о +33.7 +10.3 24 +33 +33 жарко 1007.0 1002.7
11 14.12 ЮЗ 4 н/о н/о +32.8 +10.2 25 +32 +32 жарко 1007.9 1003.6
12 14.12 ЮЗ 4 н/о н/о +31.9 +10.0 26 +31 +31 жарко 1008.1 1003.8
14 14.12 ЮВ 6 н/о н/о +31.0 +12.4 32 +32 +32 жарко 1008.0 1003.7
13 14.12 ЮЗ 5 н/о н/о +31.7 +10.4 27 +31 +31 жарко 1007.9 1003.6
15 14.12 В 6 н/о н/о +29.5 +14.1 39 +31 +31 жарко 1007.8 1003.5
16 14.12 Ю 4 н/о н/о +30.0 +13.3 36 +31 +31 жарко 1006.5 1002.2
17 14.12 СВ 3 н/о н/о +27.6 +15.9 49 +31 +31 душно 1007.0 1002.7
18 14.12 В 7 н/о н/о +25.6 +18.8 66 +31 +31 очень
душно
1006.1 1001.8
20 14.12 Ю 1 н/о н/о +26.4 +15.1 50 +29 +29 жарко 1007.1 1002.8
19 14.12 В 5 н/о н/о +26.5 +15.5 51 +30 +30 душно 1006.3 1002.0
21 14.12 ЮЗ 2 н/о н/о +26.8 +15.8 51 +30 +30 душно 1007.9 1003.6
22 14.12 З 3 н/о н/о +30.3 +14.4 38 +32 +32 жарко 1008.7 1004.4
23 14.12 З 4 н/о н/о +33.1 +14.7 33 +35 +35 душно 1008.9 1004.6
00 15.12 С 4 н/о н/о +35.1 +12.1 25 +35 +35 очень
жарко
1009.0 1004.7
02 15.12 З 5 н/о н/о +37.9 +9.5 18 +36 +36 очень
жарко
1008.3 1004.0
01 15.12 СЗ 6 н/о н/о +36.0 +11.6 23 +36 +36 очень
жарко
1008.9 1004.6
03 15.12 З 6 н/о н/о +38.1 +8.8 17 +36 +36 очень
жарко
1007.4 1003.1
04 15.12 З 5 н/о н/о +38.9 +7.6 15 +37 +37 очень
жарко
1006.5 1002.2
05 15.12 СЗ 5 н/о н/о +39.1 +6.7 14 +37 +37 очень
жарко
1005.9 1001.6
06 15.12 СЗ 5 н/о н/о +39.7 +6.1 13 +37 +37 очень
жарко
1005.3 1001.0
08 15.12 З 7 н/о н/о +38.8 +5.4 13 +36 +36 очень
жарко
1005.3 1001.0
07 15.12 З 6 н/о н/о +39.7 +6.1 13 +37 +37 очень
жарко
1005.1 1000.8
09 15.12 ЮЗ 5 н/о н/о +37.9 +6.8 15 +35 +35 очень
жарко
1006.0 1001.7
10 15.12 ЮЗ 4 н/о н/о +36.0 +7.1 17 +34 +34 очень
жарко
1006.7 1002.4
11 15.12 ЮЗ 3 н/о н/о +34.3 +7.4 19 +32 +32 жарко 1007.3 1003.0
12 15.12 ЮЗ 4 н/о н/о +31.7 +6.7 21 +30 +30 жарко 1007.9 1003.6
14 15.12 ЮЗ 5 н/о н/о +30.8 +7.9 24 +30 +30 жарко 1007.9 1003.6
13 15.12 ЮЗ 4 н/о н/о +31.5 +7.9 23 +30 +30 жарко 1008.4 1004.1
15 15.12 ЮЗ 4 н/о н/о +30.3 +8.7 26 +30 +30 жарко 1007.8 1003.5
16 15.12 ЮЗ 5 н/о н/о +29.8 +8.8 27 +29 +29 жарко 1007.5 1003.2
17 15.12 ЮЗ 3 н/о н/о +28.2 +9.5 31 +28 +28 жарко 1007.6 1003.3
18 15.12 ЮЗ 3 н/о н/о +27.2 +8.6 31 +27 +27 жарко 1007.8 1003.5
20 15.12 Ю 3 н/о н/о +26.8 +8.7 32 +27 +27 жарко 1009.7 1005.4
19 15.12 ЮЗ 4 н/о н/о +26.6 +8.6 32 +27 +27 жарко 1008.4 1004.1
21 15.12 Ю 5 н/о н/о +29.2 +10.3 31 +29 +29 жарко 1010.5 1006.1
22 15.12 Ю 7 н/о н/о +31.6 +10.3 27 +31 +31 жарко 1010.7 1006.3
23 15.12 Ю 7 н/о н/о +34.3 +9.5 22 +33 +33 жарко 1010.8 1006.4
00 16.12 ЮЗ 6 н/о н/о +36.1 +9.6 20 +35 +35 очень
жарко
1010.9 1006.5
02 16.12 Ю 4 н/о н/о +38.0 +5.9 14 +35 +35 очень
жарко
1010.6 1006.2
01 16.12 ЮЗ 6 н/о н/о +37.4 +9.1 18 +36 +36 очень
жарко
1010.8 1006.4
03 16.12 ЮЗ 5 н/о н/о +39.2 +3.4 11 +36 +36 очень
жарко
1009.6 1005.3
04 16.12 ЮЗ 6 н/о н/о +40.3 +2.8 10 +37 +37 очень
жарко
1008.8 1004.5
05 16.12 ЮЗ 5 н/о н/о +40.4 +4.3 11 +37 +37 очень
жарко
1008.0 1003.7
06 16.12 ЮЗ 7 н/о н/о +40.8 +4.6 11 +38 +38 очень
жарко
1007.2 1002.9
08 16.12 ЮЗ 5 н/о н/о +40.1 +5.3 12 +37 +37 очень
жарко
1006.8 1002.5
07 16.12 ЮЗ 7 н/о н/о +40.6 +4.4 11 +38 +38 очень
жарко
1006.7 1002.4
09 16.12 ЮЗ 7 н/о н/о +39.3 +5.8 13 +37 +37 очень
жарко
1007.2 1002.9
10 16.12 ЮЗ 4 н/о н/о +37.2 +5.3 14 +34 +34 очень
жарко
1007.9 1003.6
11 16.12 ЮЗ 3 н/о н/о +34.9 +4.4 15 +32 +32 жарко 1008.3 1004.0
12 16.12 ЮЗ 2 н/о н/о +32.6 +4.4 17 +30 +30 жарко 1008.7 1004.4
14 16.12 ЮЗ 3 н/о н/о +29.7 +2.1 17 +27 +27 жарко 1008.9 1004.6
13 16.12 Ю 2 н/о н/о +30.9 +3.8 18 +29 +29 жарко 1009.0 1004.7
15 16.12 ЮЗ 3 н/о н/о +28.2 +0.9 17 +26 +26 жарко 1008.7 1004.4
16 16.12 Ю 1 н/о н/о +26.8 +0.5 18 +25 +25 комфорт 1008.3 1004.0
17 16.12 штиль 0 н/о н/о +26.1 +0.7 19 +24 +24 комфорт 1008.0 1003.7
18 16.12 Ю 5 н/о н/о +27.0 +1.4 19 +25 +25 комфорт 1007.5 1003.2
20 16.12 Ю 4 н/о н/о +26.6 +3.2 22 +25 +25 комфорт 1008.4 1004.1
19 16.12 Ю 3 н/о н/о +25.9 +3.2 23 +25 +25 комфорт 1007.7 1003.4
21 16.12 Ю 4 н/о н/о +29.3 +4.7 21 +28 +28 жарко 1009.1 1004.8
22 16.12 В 6 н/о н/о +32.5 +5.9 19 +30 +30 жарко 1009.6 1005.3
23 16.12 В 5 н/о н/о +36.1 +6.3 16 +34 +34 очень
жарко
1009.8 1005.5
00 17.12 В 5 н/о н/о +38.6 +4.1 12 +36 +36 очень
жарко
1009.7 1005.4
02 17.12 ЮВ 3 н/о н/о +41.3 +3.6 10 +38 +38 очень
жарко
1008.4 1004.1
01 17.12 ЮВ 3 н/о н/о +40.2 +4.1 11 +37 +37 очень
жарко
1009.3 1005.0
03 17.12 З 3 н/о н/о +42.7 +3.1 9 +39 +39 очень
жарко
1007.7 1003.4
04 17.12 ЮЗ 5 н/о н/о +42.9 +1.6 8 +39 +39 очень
жарко
1006.9 1002.6
05 17.12 С 3 н/о н/о +43.8 +2.3 8 +40 +40 очень
жарко
1006.0 1001.7
06 17.12 Ю 4 н/о н/о +43.6 +2.1 8 +40 +40 очень
жарко
1005.4 1001.1
08 17.12 Ю 5 н/о н/о +42.7 +1.5 8 +39 +39 очень
жарко
1004.8 1000.5
07 17.12 З 3 н/о н/о +43.8 +0.4 7 +40 +40 очень
жарко
1004.9 1000.6
09 17.12 Ю 4 н/о н/о +41.9 +0.9 8 +38 +38 очень
жарко
1005.2 1000.9
10 17.12 Ю 5 н/о н/о +39.6 +0.9 9 +36 +36 очень
жарко
1005.7 1001.4
11 17.12 Ю 5 н/о н/о +37.7 -0.6 9 +34 +34 очень
жарко
1006.0 1001.7
12 17.12 ЮВ 6 н/о н/о +37.2 +0.5 10 +34 +34 очень
жарко
1006.4 1002.1
14 17.12 В 4 н/о н/о +31.5 -0.2 13 +28 +28 жарко 1006.2 1001.9
13 17.12 ЮВ 7 н/о н/о +36.9 +0.3 10 +33 +33 жарко 1006.4 1002.1
15 17.12 В 4 н/о н/о +30.8 -0.8 13 +28 +28 жарко 1005.8 1001.5
16 17.12 ЮВ 4 н/о н/о +31.7 -1.2 12 +28 +28 жарко 1004.9 1000.6
17 17.12 В 4 н/о н/о +29.8 -1.5 13 +27 +27 жарко 1004.6 1000.3
18 17.12 В 4 н/о н/о +27.9 -1.1 15 +25 +25 комфорт 1004.6 1000.3
20 17.12 СВ 3 н/о н/о +30.5 0.0 14 +28 +28 жарко 1005.8 1001.5
19 17.12 В 4 н/о н/о +27.1 -1.7 15 +25 +25 комфорт 1004.9 1000.6
21 17.12 С 1 н/о н/о +32.3 +0.4 13 +29 +29 жарко 1006.4 1002.1
22 17.12 СВ 5 н/о н/о +35.7 -0.6 10 +32 +32 жарко 1006.8 1002.5
23 17.12 СВ 8 н/о н/о +40.7 +3.1 10 +37 +37 очень
жарко
1006.6 1002.3
00 18.12 С 10 н/о н/о +42.2 +9.2 14 +40 +40 очень
жарко
1005.9 1001.6
02 18.12 С 9 н/о н/о +44.1 +7.1 11 +42 +42 опасность
перегрева
1004.8 1000.5
01 18.12 С 10 н/о н/о +43.3 +8.9 13 +41 +41 опасность
перегрева
1005.4 1001.1
03 18.12 С 9 н/о н/о +44.8 +6.2 10 +42 +42 опасность
перегрева
1004.0 999.7
04 18.12 З 5 н/о н/о +45.4 +3.5 8 +42 +42 опасность
перегрева
1003.0 998.7
05 18.12 С 8 н/о н/о +45.1 +4.9 9 +42 +42 опасность
перегрева
1002.3 998.0
06 18.12 СЗ 7 н/о н/о +45.3 +5.1 9 +42 +42 опасность
перегрева
1001.3 997.0
08 18.12 С 7 н/о н/о +44.8 +4.7 9 +42 +42 опасность
перегрева
1000.2 995.9
07 18.12 С 7 н/о н/о +44.9 +4.8 9 +42 +42 опасность
перегрева
1000.7 996.4

 

Местоположение метеостанции Moomba Airport (Южная Австралия, Австралия): широта -28.10 долгота 140.20 высота над уровнем моря 38 м.

В архиве по умолчанию представлена погода в Moomba Airport за последнюю неделю. Архивные данные за месяц целиком и за предыдущие месяцы, начиная с января 2011 года, Вы можете получить, выбрав интересующий диапазон дат из раскрывающегося списка и нажав кнопку "Ввод!".

Внимание! Время в таблицах - всемирное. Для получения местного времени необходимо прибавить поправку, которая в Moomba Airport равна 9.5 ч.

Смотрите также архив погоды в соседних городах и на ближайших метеорологических станциях:

Погода в Ballera Gas Field (Квинсленд, Австралия) (176 км)
Погода в Tibooburra Airport (Новый Южный Уэльс, Австралия) (235 км)
Погода в Birdsville Airport (Квинсленд, Австралия) (259 км)
Погода в Marree Aero (Южная Австралия, Австралия) (271 км)
Погода в Leigh Creek Airport (Южная Австралия, Австралия) (327 км)
Погода в Thargomindah Airport (Квинсленд, Австралия) (355 км)
Погода в Fowlers Gap Aws (Новый Южный Уэльс, Австралия) (362 км)
Погода в White Cliffs Aws (Новый Южный Уэльс, Австралия) (413 км)
Погода в Olympic Dam Aerodrome (Южная Австралия, Австралия) (417 км)
Погода в Broken Hill Airport (Новый Южный Уэльс, Австралия) (450 км)

Пояснения к столбцам:

Ветер - указаны скорость ветра в м/с - средняя за 10 мин, порывы в срок и между сроками (в фигурных скобках) и направление, откуда дует ветер: С - северный, СВ - северо-восточный, В - восточный, ЮВ - юго-восточный, Ю - южный, ЮЗ - юго-западный, З - западный, СЗ - северо-западный.
Видимость - горизонтальная дальность видимости в метрах или километрах. При видимости от 1 до 10 км при отсутствии осадков обычно наблюдается дымка, при ухудшении видимости до 1 км и менее - туман. В сухую погоду видимость может ухудшаться дымом, пылью или мглою.
Явления - указаны атмосферные явления, наблюдавшиеся в срок или в последний час перед сроком; фигурными скобками обозначены явления, наблюдавшиеся между сроками (за 1-3 часа до срока); квадратными скобками обозначены град или гололедные отложения с указанием их диаметра в мм.
Облачность - указаны через наклонную черту общая и нижняя облачность в баллах и высота нижней границы облаков в метрах; квадратными скобками обозначены формы облаков: Ci - перистые, Cs - перисто-слоистые, Cc - перисто-кучевые, Ac - высококучевые, As - высокослоистые, Sc - слоисто-кучевые, Ns - слоисто-дождевые, Cu - кучевые, Cb - кучево-дождевые. Подробнее классификацию облаков см. в Атласе облаков (PDF).
T - Температура воздуха - температура, измеренная на высоте 2 м над землей.
Td - Температура точки росы - температура, при понижении до которой содержащийся в воздухе водяной пар достигнет насыщения.
f - Относительная влажность воздуха - влажноcть воздуха, измеренная на высоте 2 м над землей.
Te - Эффективная температура - температура, которую ощущает одетый по сезону человек в тени. Характеристика душности погоды. При расчете учитывается влияние влажности воздуха и скорости ветра на теплоощущения человека.
Tes - Эффективная температура на солнце - температура, которую ощущает человек, с поправкой на солнечный нагрев. Характеристика знойности погоды. Зависит от высоты солнца над горизонтом, облачности и скорости ветра. Ночью, в пасмурную погоду, а также при ветре 12 м/с и более поправка равна нулю.
P - Атмосферное давление - приведенное к уровню моря атмосферное давление.
Po - Атмосферное давление - измеренное на уровне метеостанции атмосферное давление.
Tmin - Минимальная температура - минимум температуры воздуха на высоте 2 м над землей.
Tmax - Максимальная температура - максимум температуры воздуха на высоте 2 м над землей.
R - Количество осадков - Количество выпавших осадков за период времени, мм. При наведении курсора мыши на число - период времени, за который выпало указанное количество осадков.
R24 - Количество осадков - Количество выпавших осадков за 24 часа, мм.
S - Снежный покров - Высота снежного покрова, см. При наведении курсора мыши на число - состояние снежного покрова и степень покрытия местности в баллах.